User: anonymous
Location: Meriden
(44.0740°N, 93.3870°W)
Time: 09:21:55
(UTC-05:00)
Language:

Hamsat - Orbit

View from above orbital plane
View from above orbital plane
View from above satellite
View from above satellite

Ground track
Ground track

The orbit data is extracted from the following two-line orbital elements,

1 28650U 05017B   14209.10650294  .00001282  00000-0  15320-3 0  8027
2 28650 097.5611 212.0298 0025332 026.8796 333.3726 14.85602158499301
Epoch (UTC): 28 July 2014 02:33:21
Eccentricity: 0.0025332
inclination: 97.5611°
perigee height: 594 km
apogee height: 629 km
right ascension of ascending node: 212.0298°
argument of perigee: 26.8796°
revolutions per day: 14.85602158
mean anomaly at epoch: 333.3726°
orbit number at epoch: 49930

The dashed part of the orbit path shows where the satellite is in the earth's shadow,  

DLR